Preview of NWS' New Version of Forecast
This preview is not operational and should not be used for support decisions.

Regional Weather Roundup (RWR)

Issued by Gray - Portland, ME (GYX)

                            
000
ASUS41 KGYX 240810
RWRGYX
WEATHER ROUNDUP FOR MAINE AND NEW HAMPSHIRE
NATIONAL WEATHER SERVICE GRAY ME
300 AM EST THU JAN 24 2019

MEZ002-005-006-010-012-015-018-020-021-024-026-027-029-240900-
MAINE
  
CITY           SKY/WX    TMP DP  RH WIND       PRES   REMARKS
PORTLAND       LGT RAIN  39  38  96 S8        29.83F FOG              
SANFORD        LGT RAIN  39  38  96 S3        29.82F FOG              
BAR HARBOR     LGT RAIN  39  38  96 SW9       29.84F FOG              
WISCASSET      LGT RAIN  39  39 100 CALM      29.85F                  
ROCKLAND       LGT RAIN  42  42 100 SW10      29.83F                  
FRYEBURG       LGT RAIN  33  33 100 S3        29.79F FOG              
LEWISTONAUBURN LGT RAIN  35  32  88 S6        29.81F                  
AUGUSTA        CLOUDY    36  34  92 S8        29.81F                  
WATERVILLE     LGT RAIN  34  31  88 MISG      29.77F                  
BANGOR         FRZ RAIN  29  28  96 CALM      29.80F                  
GREENVILLE       N/A     22  17  81 SE9       29.69F                  
MILLINOCKET    FRZ RAIN  25  22  88 S5        29.77F                  
HOULTON        FRZ RAIN  29  27  92 S9        29.74F                  
PRESQUE ISLE   FLURRIES  22  20  92 SE8       29.73F                  
FRENCHVILLE    CLOUDY    19  14  81 SE9       29.68F                  
CARIBOU        FRZ RAIN  23  20  88 S10       29.71F WCI  12          
$$

NHZ002-005-008-009-011-012-014-240900-
NEW HAMPSHIRE
  
CITY           SKY/WX    TMP DP  RH WIND       PRES   REMARKS
PORTSMOUTH     LGT RAIN  39  39  99 CALM      29.80F FOG              
ROCHESTER      LGT RAIN  37  37 100 CALM      29.81F VSB 1/2          
NASHUA         LGT RAIN  35  35 100 CALM      29.80F FOG              
MANCHESTER     LGT RAIN  37  36  96 NW3       29.79F VSB 1/2          
CONCORD        LGT RAIN  36  36 100 CALM      29.81F FOG              
LACONIA        LGT RAIN  33  30  88 CALM      29.79F FOG              
PLYMOUTH       MIX PCPN  32  31  98 CALM      29.80F                  
BERLIN         FRZ RAIN  30  29  96 CALM      29.71F                  
WHITEFIELD     MIX PCPN  31  30  96 CALM      29.71F                  
JAFFREY        LGT RAIN  42  42 100 SW9       29.79F                  
KEENE          LGT RAIN  36  36 100 CALM      29.80F FOG              
LEBANON        LGT RAIN  36  33  89 CALM      29.75F FOG              
MT WASHINGTON  FRZ RAIN  30  30 100 SW64G74     N/A  VSB 0   WCI  10  
$$

VTZ005-007-008-240900-
VERMONT
  
CITY           SKY/WX    TMP DP  RH WIND       PRES   REMARKS
ST JOHNSBURY     N/A     37  37 100 MISG      29.70F                  
MONTPELIER     LGT RAIN  37  37 100 S10       29.72F                  
BURLINGTON     CLOUDY    42  37  82 S21G36    29.66F                  
$$

MAZ007-012-024-CTZ003-RIZ002-NYZ038-NYZ072-240900-
SOUTHERN NEW ENGLAND AND NY
  
CITY           SKY/WX    TMP DP  RH WIND       PRES   REMARKS
BOSTON         CLOUDY    50  46  86 SW18G25   29.85F                  
WORCESTER      LGT RAIN  47  47 100 SW23G37   29.81F FOG              
NANTUCKET      CLOUDY    43  42  97 S13       29.98F FOG              
PROVIDENCE     CLOUDY    50  49  96 S18G28    29.90F                  
HARTFORD       CLOUDY    47  46  97 S15       29.82F                  
ALBANY         CLOUDY    42  37  82 S10       29.76F                  
NEW YORK CITY  LGT RAIN  50  46  86 S13G18    29.83F                  
$$

ANZ081-ANZ082-ANZ150-NHZ014-MEZ023>029-240900-
COASTAL MARINE OBSERVATIONS
  
STATION/POSITION TIME  TEMP    WIND        PRES    WAVE
                       AIR SEA DIR/SP/G            HT/PER
                 (UTC) (F)     (DEG/KT/KT) (MB)    (FT/S)
MOUNT DESERT ROC 0800   44     190/ 29/ 34 1010.7F
MATINICUS ROCK   0800   44     210/ 30/ 33 1010.0F
ISLE OF SHOALS   0800   47     190/ 25/ 27 1009.5F
JEFFREYS LEDGE   0738      42                N/A     5/ 6
CASHES LEDGE BUO 0750   44 40              1011.5F   7/ 7
$$

.............KEY..............
   WCI - WIND CHILL
   TC  - TEMPERATURE IN CELSIUS
   VSB - VISIBILITY IN MILES
   HX  - HEAT INDEX
   FAIR- INDICATES FEW OR NO CLOUDS BELOW 12,000 FT, WITH NO 
         SIGNIFICANT WEATHER AND/OR OBSTRUCTIONS TO VISIBILITY.